星链-36034(STARLINK-36034)

导读

STARLINK-36034是美国太空探索技术公司Starlink星链星座的一颗卫星,星链项目旨在构建覆盖全球的低轨卫星互联网星座,为全球用户提供高速宽带服务。该卫星于2025年11月22日发射,加入已部署的数千颗星链卫星行列,进一步拓展星座的服务覆盖范围与网络容量,推进星链星座组网进程。

基本信息
目录编号:
66609
目录名称:
STARLINK-36034
国际标识:
2025-270X
轨道中心:
EARTH
卫星名称:
星链-36034
卫星全名:
星链-36034(STARLINK-36034)
卫星状态:
在轨 (已飞行203 天)
发射日期:
2025-11-22 UTC
国别 :
美国 (US)
星等 :
--
轨道信息
数据来源 国际轨道数据
星历时间: 2026-06-11T06:40:48+0800
2天前
查看轨道信息
半长轴: 6861.134km
偏心率: 0.0002459
轨道倾角: 43.001°
近地点辐角 280.619°
升交点赤经 249.900°
平近点角 79.438°
近地点: 481.309km
远地点: 484.685km
周期: 94.266分钟
每日圈数: 15.275974
详细信息
固有亮度:
5
最大亮度:
2.5
卫星平台:
Starlink V1.0
覆盖范围:
全球
运营商:
太空探索技术公司
运营商所在国:
美国
制造商(研发单位):
太空探索技术公司
制造商所在国:
美国
使用方式:
暂无
卫星简介
Starlink 计划是 SpaceX 推出的全球卫星互联网项目,通过发射低轨道卫星,为全球尤其是偏远地区提供高速、低延迟的互联网服务。自 2019 年起,Starlink 已部署数千颗卫星,旨在缩小全球数字鸿沟,推动互联网普及。该项目还为军事、航空等行业提供通信支持,带来广泛经济效益。
2D轨道图
3D轨道图
轨道高度分析图
轨道倾角分析图
轨道综合分析图
查看轨道综合分析图